Location: Mount Cross
(36.6390°N, 79.4878°W)
Time: 01:32:50
(UTC+00:00)

Vanguard 2 Rocket - Pass Details

Date: 26 March 2023
Orbit: 554 x 3314 km, 32.9° (Epoch: 08 June)

Event Time Altitude Azimuth Distance (km) Brightness Sun altitude
Rises 04:48:44 0° 278° (W) 4,801 10.8 -50.4°
Reaches altitude 10° 04:51:26 10° 274° (W) 4,115 10.3 -50.5°
Enters shadow 04:53:05 17° 271° (W) 3,741 10.0 -50.6°
